Flag for Norway Weather past 2 weeks in Asker, Norway

Now
43 °F

Sprinkles. Partly cloudy.


Feels Like: 30 °F
Forecast: 19 / 32 °F
Wind: 47 mph from West

Location: Oslo / Fornebu

Current Time: Dec 22, 2014 at 12:26:57 AM

Latest Report: Dec 21, 2014 at 11:50 PM


Visibility: 5 mi

Pressure: 29.15 "Hg

Humidity: 81%

Dew point: 37 °F

Location of AskerLocation

Historic Weather in Asker — Graph

°F

Asker temperature yesterday

Maximum temperature yesterday: 48 °F (at 12:20 PM)
Minimum temperature yesterday: 43 °F (at 12:20 AM)
Average temperature yesterday: 45 °F

Past Weeks' High & Low Weather Summary

 TemperatureHumidityPressure
High48 °F (Dec 14, 9:20 AM)100% (Dec 9, 6:20 PM)29.98 "Hg (Dec 9, 6:20 PM)
Low32 °F (Dec 15, 9:20 PM)41% (Dec 15, 11:20 AM)28.53 "Hg (Dec 11, 2:50 AM)
Average42 °F73%29.15 "Hg
* Reported Dec 6 10:50 PM — Dec 21 10:20 PM, Asker, Weather by CustomWeather, © 2014

Note: Actual official high and low records may vary slightly from our data, if they occured in-between our weather recording intervals... More about our weather records

Advertising

Asker weather history for previous 24 hours

 ConditionsComfort  
Time TempWeatherWind HumidityBarometerVisibility
10:20 PM
Dec 21
45 °FRain showers. Fog.39 mph81%29.18 "Hg1 mi
9:50 PM46 °FPassing clouds.40 mph66%29.18 "HgN/A
9:20 PM46 °FPassing clouds.33 mph76%29.18 "HgN/A
8:50 PM46 °FPassing clouds.37 mph76%29.18 "HgN/A
8:20 PM46 °FSprinkles. Passing clouds.31 mph76%29.21 "HgN/A
7:50 PM48 °FPassing clouds.32 mph71%29.21 "HgN/A
7:20 PM46 °FSprinkles. Passing clouds.32 mph87%29.21 "HgN/A
6:50 PM48 °FSprinkles. Passing clouds.29 mph87%29.21 "HgN/A
6:20 PM48 °FPassing clouds.33 mph94%29.21 "HgN/A
5:50 PM48 °FPassing clouds.32 mph94%29.24 "HgN/A
5:20 PM48 °FPartly cloudy.32 mph94%29.24 "HgN/A
4:50 PM48 °FPassing clouds.26 mph94%29.24 "HgN/A
4:20 PM48 °FPartly cloudy.33 mph94%29.27 "HgN/A
3:50 PM48 °FPassing clouds.35 mph94%29.27 "HgN/A
3:20 PM48 °FSprinkles. Passing clouds.31 mph100%29.27 "Hg4 mi
2:50 PM48 °FLight rain. Partly sunny.36 mph100%29.27 "HgN/A
2:20 PM48 °FLight rain. Fog.36 mph100%29.27 "Hg2 mi
1:50 PM48 °FLight rain. Fog.38 mph100%29.27 "Hg2 mi
1:20 PM46 °FLight rain. Fog.16 mph100%29.33 "Hg2 mi
12:50 PM48 °FLight rain. Partly sunny.28 mph94%29.33 "HgN/A
12:20 PM48 °FLight rain. Broken clouds.26 mph94%29.36 "Hg4 mi
11:50 AM46 °FLight rain. Low clouds.31 mph100%29.36 "Hg3 mi
11:20 AM46 °FLight rain. Fog.37 mph93%29.39 "Hg3 mi
10:50 AM45 °FLight rain. Low clouds.40 mph100%29.42 "Hg3 mi
10:20 AM45 °FLight rain. Low clouds.39 mph93%29.45 "Hg5 mi
9:50 AM45 °FLight rain. Partly sunny.35 mph87%29.47 "HgN/A
9:20 AM43 °FLight rain. Fog.33 mph93%29.50 "Hg1 mi
8:50 AM45 °FLight rain. Passing clouds.32 mph87%29.53 "Hg4 mi
8:20 AM43 °FLight rain. Fog.33 mph87%29.56 "Hg2 mi
7:50 AM43 °FRain. Passing clouds.32 mph93%29.59 "Hg2 mi
7:20 AM43 °FLight rain. Passing clouds.32 mph93%29.62 "Hg4 mi
6:50 AM43 °FLight rain. Overcast.31 mph81%29.65 "HgN/A
6:20 AM43 °FLight rain. Passing clouds.24 mph87%29.68 "HgN/A
5:50 AM43 °FLight rain. Passing clouds.24 mph81%29.71 "HgN/A
5:20 AM43 °FPassing clouds.25 mph76%29.71 "HgN/A
4:50 AM43 °FDrizzle. Mostly cloudy.21 mph71%29.77 "HgN/A
4:20 AM43 °FPassing clouds.16 mph66%29.77 "HgN/A
3:50 AM43 °FPassing clouds.15 mph66%29.80 "HgN/A
3:20 AM43 °FPassing clouds.14 mph66%29.83 "HgN/A
2:50 AM43 °FPartly cloudy.14 mph61%29.83 "HgN/A
2:20 AM43 °FPartly cloudy.13 mph61%29.83 "HgN/A
1:50 AM43 °FPassing clouds.15 mph61%29.86 "HgN/A
1:20 AM43 °FPassing clouds.15 mph53%29.86 "HgN/A
12:50 AM43 °FPassing clouds.15 mph53%29.86 "HgN/A
12:20 AM43 °FPassing clouds.16 mph61%29.89 "HgN/A
Weather by CustomWeather, © 2014

See weather overviewHow to use our weather pages